Weather observations for the past three days for
Danbury, Danbury Municipal Airport
Imperial (Metric)
Date Time (edt) Wind (mph) Vis. (mi.) Weather Sky Cond. Temperature (ºF) Relative Humidity Wind Chill (°F) Heat Index (°F) Pressure Precipitation (in)
Air Dwpt 6 hour altimeter (in) sea level (mb) 1 hr 3 hr 6 hr
Max. Min.
22 10:53 W 5 10.00 Fair CLR 82.9 72 70% 88 30.04 1016.6
22 09:53 Vrbl 3 10.00 A Few Clouds FEW013 79 72 79% 82 30.06 1017.4
22 08:53 SW 5 8.00 Mostly Cloudy BKN006 75.9 71.1 85% 76 30.06 1017.7
22 07:53 W 3 6.00 Fog/Mist OVC003 73 71.1 73 71.1 94% 30.07 1017.8
22 06:53 Calm 6.00 Fog/Mist OVC003 72 70 94% 30.08 1018.3
22 05:53 SW 3 0.25 Fog VV002 72 70 94% 30.07 1017.8
22 04:53 SW 3 4.00 Fog/Mist OVC003 72 70 94% 30.08 1018.1
22 03:53 Calm 3.00 Fog/Mist OVC003 72 70 94% 30.08 1018.2
22 02:53 Calm 5.00 Fog/Mist BKN004 BKN009 73 70 90% 30.09 1018.4
22 01:53 NE 5 5.00 Fog/Mist OVC006 73 71.1 75 72 94% 30.1 1018.6 0.01
22 00:53 NE 3 8.00 Mostly Cloudy SCT007 BKN012 BKN065 73 70 90% 30.11 1019.2
21 23:53 Calm 3.00 Fog/Mist BKN003 OVC008 73 71.1 94% 30.14 1020.1
21 22:53 E 3 8.00 A Few Clouds FEW005 73 70 90% 30.13 1019.8 0.01
21 21:53 Calm 8.00 Fair CLR 73.9 71.1 91% 30.13 1019.7
21 20:53 SE 3 10.00 Fair CLR 75 71.1 88% 75 30.12 1019.4 0.01
21 19:53 E 5 10.00 Light Rain BKN110 75 72 93 75 90% 74 30.13 1020.0 0.09 0.42
21 18:53 NW 5 8.00 Light Rain FEW044 BKN060 OVC080 75 71.1 88% 75 30.15 1020.4 0.2
21 17:53 N 8 10.00 Thunderstorm in Vicinity Light Rain OVC048 78.1 71.1 79% 80 30.15 1020.4 0.01
21 16:53 NE 10 G 17 10.00 Thunderstorm in Vicinity BKN055 BKN070 BKN090 82 70 67% 86 30.12 1019.5 0.12
21 15:53 S 7 5.00 Partly Cloudy with Haze SCT030 78.1 70 76% 80 30.11 1019.1 0.12
21 14:53 S 10 G 21 10.00 Fair CLR 89.1 70 53% 94 30.11 1019.1
21 13:53 SE 10 10.00 Mostly Cloudy BKN055 BKN075 91 71.1 93 78.1 52% 98 30.13 1019.7
21 12:53 NW 8 10.00 A Few Clouds FEW055 FEW090 93 69.1 46% 98 30.15 1020.5
21 11:53 Calm 10.00 Fair CLR 91.9 66.9 44% 95 30.17 1021.2
21 10:53 Calm 10.00 Fair CLR 90 69.1 50% 95 30.18 1021.4
21 09:53 Vrbl 3 10.00 Fair CLR 87.1 71.1 59% 93 30.19 1021.8
21 08:53 Calm 10.00 Fair CLR 82.9 69.1 63% 87 30.2 1022.1
21 07:53 SW 3 10.00 Fair CLR 78.1 68 78.1 69.1 71% 80 30.21 1022.4
21 06:53 Calm 10.00 Fair CLR 73.9 66.9 79% 30.21 1022.4
21 05:53 SW 3 10.00 Partly Cloudy SCT065 71.1 66.9 87% 30.21 1022.4
21 04:53 SW 3 10.00 Partly Cloudy SCT060 70 66 87% 30.21 1022.6
21 03:53 Calm 10.00 Fair CLR 70 66 87% 30.21 1022.5
21 02:53 Calm 10.00 Fair CLR 71.1 66.9 87% 30.21 1022.4
21 01:53 SW 5 10.00 Fair CLR 72 66.9 84.9 72 84% 30.22 1022.8
21 00:53 S 3 10.00 Fair CLR 75.9 64.9 69% 78 30.23 1023.1
20 23:53 Calm 10.00 Fair CLR 77 66 69% 79 30.24 1023.5
20 22:53 NE 5 10.00 Fair CLR 78.1 66 67% 80 30.25 1023.8
20 21:53 S 3 10.00 Fair CLR 79 66 65% 81 30.24 1023.6
20 20:53 Calm 10.00 Fair CLR 82 66.9 60% 85 30.22 1023.0
20 19:53 S 9 10.00 Fair CLR 84.9 68 93 84.9 57% 88 30.21 1022.4
20 18:53 S 8 10.00 Fair CLR 89.1 69.1 52% 94 30.21 1022.4
20 17:53 SW 12 G 18 10.00 Fair CLR 91 66.9 45% 94 30.21 1022.6
20 16:53 SW 8 10.00 Fair CLR 91.9 66.9 44% 95 30.23 1023.1
20 15:53 S 10 G 18 10.00 Fair CLR 93 66.9 42% 97 30.24 1023.5
20 14:53 SW 10 10.00 Fair CLR 91.9 68 46% 96 30.26 1024.3
20 13:53 SW 13 G 18 10.00 Fair CLR 91 69.1 91 75.9 49% 96 30.29 1025.0
20 12:53 W 10 10.00 Fair CLR 91 69.1 49% 96 30.3 1025.6
20 11:53 SW 10 10.00 Fair CLR 89.1 70 53% 94 30.32 1026.1
20 10:53 Vrbl 5 10.00 Fair CLR 86 69.1 57% 90 30.32 1026.1
20 09:53 W 7 10.00 Fair CLR 82 68 63% 85 30.32 1026.2
20 08:53 Vrbl 5 10.00 Fair CLR 79 66 65% 81 30.32 1026.2
20 07:53 W 7 10.00 Fair CLR 75.9 64 75.9 66 67% 78 30.32 1026.3
20 06:53 Calm 10.00 Fair CLR 72 64 76% 30.32 1026.1
20 05:53 Calm 10.00 Fair CLR 68 64 87% 30.31 1026.0
20 04:53 Calm 10.00 Fair CLR 66 62.1 87% 30.31 1025.8
20 03:53 Calm 10.00 Fair CLR 68 62.1 81% 30.31 1025.8
20 02:53 Calm 10.00 Fair CLR 68 61 78% 30.31 1025.7
20 01:53 Calm 10.00 Fair CLR 69.1 62.1 81 68 78% 30.32 1026.2
20 00:53 Calm 10.00 Fair CLR 69.1 59 70% 30.33 1026.5
19 23:53 Calm 10.00 Fair CLR 72 57 59% 30.34 1026.8
19 22:53 Calm 10.00 Fair CLR 73.9 55.9 54% 30.34 1027.0
19 21:53 W 6 10.00 Fair CLR 75 55.9 52% 78 30.35 1027.2
19 20:53 SW 5 10.00 Fair CLR 77 64.9 66% 79 30.33 1026.6
19 19:53 Calm 10.00 Fair CLR 81 66.9 91.9 81 62% 83 30.32 1026.4
19 18:53 S 8 G 17 10.00 Fair CLR 82.9 68 61% 86 30.32 1026.4
19 17:53 S 7 10.00 Fair CLR 86 69.1 57% 90 30.3 1025.7
19 16:53 SW 13 10.00 Fair CLR 88 69.1 54% 92 30.31 1026.0
19 15:53 S 10 10.00 A Few Clouds FEW042 90 70 52% 95 30.31 1025.8
19 14:53 S 7 10.00 Fair CLR 91 69.1 49% 96 30.32 1026.2
19 13:53 Vrbl 7 10.00 Fair CLR 90 68 91 75.9 48% 94 30.32 1026.3
19 12:53 SW 7 10.00 Fair CLR 90 69.1 50% 95 30.34 1026.9
19 11:53 W 5 10.00 Fair CLR 87.1 68 53% 91 30.35 1027.2
Date Time (edt) Wind (mph) Vis. (mi.) Weather Sky Cond. Air Dwpt Max. Min. Relative Humidity Wind Chill (°F) Heat Index (°F) altimeter (in) sea level (mb) 1 hr 3 hr 6 hr
6 hour
Temperature (ºF) Pressure Precipitation (in)